Whyalla, Australia

5:08 PM ACDT on March 23, 2017 (GMT +1030)
Whyalla

Weather History for 94664 - July, 2013

Change the Weather History Date:

Wednesday, July 24, 2013

  Actual Average Record
Temperature  
Mean Temperature 45 °F -  
Max Temperature 55 °F - - ()
Min Temperature 35 °F - - ()
Degree Days  
Heating Degree Days 20    
Moisture  
Dew Point 43 °F    
Average Humidity 79    
Maximum Humidity 100    
Minimum Humidity 63    
Precipitation  
Precipitation 0.00 in - - ()
Sea Level Pressure  
Sea Level Pressure 30.45 in    
Wind  
Wind Speed 6 mph ()    
Max Wind Speed 10 mph    
Max Gust Speed -    
Visibility 6.2 miles    
Events      
T = Trace of Precipitation, MM = Missing Value Source: Averaged Metar Reports

Daily Weather History Graph

Daily Weather History Graph

Search for Another Location

Airport or City:

Trip Planner

Search our weather history database for the weather conditions in past years. The results will help you decide how hot, cold, wet, or windy it might be!

Date:

Astronomy

Jul. 24, 2013 Rise Set
Actual Time 7:16 AM ACST 5:36 PM ACST
Civil Twilight 6:50 AM ACST 6:03 PM ACST
Nautical Twilight 6:19 AM ACST 6:33 PM ACST
Astronomical Twilight 5:50 AM ACST 7:02 PM ACST
Moon 7:30 PM ACST (7/24) 7:54 AM ACST (7/24)
Length of Visible Light 11h 13m
Length of Day
10h 20m
Full, 97% of the Moon is Illuminated
Jul 24
Full
Jul 30
Last Quarter
Aug 7
New
Aug 14
First Quarter
Aug 21
Full

Hourly Weather History & Observations

Time (ACST) Temp. Windchill Dew Point Humidity Pressure Visibility Wind Dir Wind Speed Gust Speed Precip Events Conditions
12:30 AM 53.6 °F - 48.2 °F 82% 30.51 in 6.2 mi SE 8.1 mph - N/A   Overcast
1:30 AM 51.8 °F - 42.8 °F 71% 30.51 in 6.2 mi SE 9.2 mph - N/A   Mostly Cloudy
2:30 AM 51.8 °F - 42.8 °F 71% 30.51 in 6.2 mi SSE 6.9 mph - N/A   Overcast
3:30 AM 48.2 °F - 42.8 °F 82% 30.48 in 6.2 mi SE 5.8 mph - N/A   Unknown
4:30 AM 41.0 °F 38.0 °F 39.2 °F 93% 30.48 in 6.2 mi ESE 4.6 mph - N/A   Unknown
5:30 AM 39.2 °F 37.0 °F 35.6 °F 87% 30.48 in 6.2 mi ESE 3.5 mph - N/A   Unknown
6:30 AM 37.4 °F 34.9 °F 35.6 °F 93% 30.51 in 6.2 mi ESE 3.5 mph - N/A   Unknown
7:30 AM 35.6 °F - 35.6 °F 100% 30.51 in 6.2 mi Calm Calm - N/A   Unknown
8:30 AM 44.6 °F - 42.8 °F 93% 30.51 in 6.2 mi Calm Calm - N/A   Unknown
9:30 AM 53.6 °F - 42.8 °F 67% 30.51 in 6.2 mi East 9.2 mph - N/A   Unknown
10:30 AM 53.6 °F - 42.8 °F 67% 30.51 in 6.2 mi East 6.9 mph - N/A   Unknown
11:30 AM 55.4 °F - 42.8 °F 63% 30.48 in 6.2 mi East 6.9 mph - N/A   Unknown
12:30 PM 55.4 °F - 44.6 °F 67% 30.48 in 6.2 mi SE 6.9 mph - N/A   Scattered Clouds
1:30 PM 55.4 °F - 44.6 °F 67% 30.42 in 6.2 mi ESE 9.2 mph - N/A   Unknown
2:30 PM 55.4 °F - 44.6 °F 67% 30.42 in 6.2 mi SE 10.4 mph - N/A   Unknown
3:30 PM 55.4 °F - 44.6 °F 67% 30.39 in 6.2 mi ESE 9.2 mph - N/A   Unknown
4:30 PM 55.4 °F - 44.6 °F 67% 30.39 in 6.2 mi East 9.2 mph - N/A   Unknown
5:30 PM 53.6 °F - 44.6 °F 72% 30.36 in 6.2 mi East 5.8 mph - N/A   Unknown
6:30 PM 51.8 °F - 46.4 °F 82% 30.42 in 6.2 mi East 5.8 mph - N/A   Unknown
7:30 PM 48.2 °F - 44.6 °F 87% 30.42 in 6.2 mi NE 4.6 mph - N/A   Unknown
8:30 PM 51.8 °F - 46.4 °F 82% 30.39 in 6.2 mi NE 8.1 mph - N/A   Unknown
9:30 PM 50.0 °F - 46.4 °F 87% 30.39 in 6.2 mi NE 4.6 mph - N/A   Unknown
10:30 PM 48.2 °F - 46.4 °F 93% 30.39 in 6.2 mi NE 4.6 mph - N/A   Unknown
11:30 PM 41.0 °F 37.1 °F 39.2 °F 93% 30.36 in 6.2 mi NW 5.8 mph - N/A   Unknown